Temp
50 43 38 45 48 49 47 44 41 45 55 51 49 48 53 56 56 56 57 58 62 61 64 64 62 61 61 62 63 62 59 58 58 58 58 58 58 60 60 62 62 63 63 61
45 39 48 50 50 48 47 43 41 48 53 51 46 48 55 56 59 58 59 60 63 58 59 61 59 60 61 62 62 61 61 60 58 60 60 60 59 60 61 61 62 62 63 62
42 47 52 50 47 46 44 42 42 44 47 47 46 46 53 60 58 59 60 61 62 59 59 59 58 59 61 61 60 61 62 61 59 59 61 60 58 59 58 58 60 60 62 62
43 51 50 46 46 47 39 47 47 45 40 33 44 33 48 54 55 57 60 59 60 59 64 62 59 57 59 61 61 59 61 61 62 59 58 59 58 57 59 59 59 59 60 61
43 46 44 44 46 49 43 48 45 43 36 35 37 33 43 50 49 55 57 60 60 59 64 63 60 59 59 61 59 58 59 61 61 61 60 59 58 59 59 59 58 59 58 60
47 51 49 48 48 48 48 44 43 41 37 27 37 36 39 45 52 56 60 62 63 60 64 66 64 61 57 60 59 57 60 61 61 61 60 60 59 59 57 57 57 57 58 58
42 43 48 50 42 46 42 37 23 23 28 27 41 37 40 52 56 58 60 63 65 63 63 64 61 57 58 58 58 60 60 60 61 60 60 60 60 60 59 58 57 57 58 57
33 32 44 49 45 41 39 37 26 22 26 30 42 34 40 54 57 60 62 63 66 65 63 64 63 59 57 58 59 59 58 59 60 61 61 61 61 61 58 58 57 56 58 59
34 36 46 48 48 47 38 33 41 32 33 30 35 41 50 53 53 56 57 58 55 61 63 64 64 61 58 57 58 58 58 59 60 60 61 61 61 61 60 58 58 57 58 60
42 35 45 47 49 48 42 44 32 34 25 24 33 36 39 45 46 51 55 54 55 56 60 64 63 61 60 59 58 58 58 58 59 60 60 61 59 61 61 61 59 59 58 58
44 40 39 45 41 39 38 34 36 36 34 29 26 35 45 44 46 47 51 56 55 55 57 60 61 61 61 60 58 58 58 57 57 58 58 59 59 61 61 61 61 61 60 59
45 39 32 37 48 48 44 39 38 31 31 35 33 34 48 46 48 50 51 56 56 57 59 59 59 59 58 58 58 57 57 57 57 58 58 58 59 60 61 61 61 61 61 61
44 35 30 33 39 43 38 41 43 41 37 32 29 34 48 47 47 50 50 53 56 55 55 55 55 55 57 58 58 58 58 58 58 58 57 58 58 58 60 60 61 61 61 61
47 37 33 26 31 38 36 40 42 40 33 34 34 39 44 44 45 48 50 52 55 54 53 52 51 52 53 54 55 56 57 58 59 58 58 57 57 58 60 61 61 60 61 61
41 33 35 37 39 40 39 40 41 36 37 34 38 38 45 47 47 48 50 52 53 51 52 51 49 49 50 51 52 53 53 54 58 59 58 58 58 59 60 60 60 60 60 60
41 33 33 32 39 39 37 41 42 43 41 39 39 38 49 51 51 49 50 51 50 49 48 48 47 47 46 47 49 50 50 51 53 53 55 58 59 59 59 58 59 59 59 59
37 33 30 28 35 35 30 37 41 42 43 42 36 42 49 47 48 49 50 49 47 46 46 45 44 43 43 44 46 44 46 48 47 48 50 50 51 52 53 56 59 58 59 59
35 33 31 26 30 21 38 48 50 44 47 47 48 49 49 47 47 49 51 47 44 44 43 42 42 42 42 43 43 44 44 44 44 44 44 46 46 47 49 50 49 50 52 58
39 33 26 24 26 32 38 45 42 42 41 48 44 49 47 47 45 42 46 45 43 42 41 41 41 41 40 41 43 42 42 42 42 41 40 41 41 43 44 43 43 45 46 49
36 35 29 25 23 18 35 45 49 50 35 45 48 47 47 48 38 37 43 42 41 41 41 39 39 38 37 38 42 42 40 41 39 39 38 38 37 39 38 39 40 41 43 45
28 28 27 25 25 29 41 43 48 34 34 44 44 44 45 39 42 41 41 38 39 40 40 40 38 35 35 36 37 36 37 37 39 37 36 35 34 35 35 35 37 38 39 41
28 26 24 27 25 23 43 43 36 38 42 43 44 43 40 40 40 39 38 37 36 35 35 36 34 32 33 34 34 33 33 37 39 36 33 33 33 34 35 33 33 34 36 36
24 32 31 33 30 41 43 42 44 45 42 43 43 44 42 39 38 37 34 33 33 32 32 32 31 30 30 31 32 31 32 36 35 34 32 32 31 32 33 32 31 31 33 32
34 35 32 34 38 39 40 41 43 42 39 40 41 41 41 36 35 34 33 31 30 30 29 30 30 29 29 31 31 32 31 35 33 31 31 30 29 30 30 31 31 30 29 29
35 35 34 33 35 37 37 39 39 39 39 36 35 35 35 34 31 31 30 29 28 27 28 28 28 27 27 30 29 30 31 31 31 29 30 29 30 28 28 27 27 28 29 30
34 30 29 29 32 33 32 36 37 34 32 33 33 30 30 31 30 29 27 27 26 25 27 26 27 26 26 26 26 27 29 30 29 28 27 26 26 25 25 26 25 29 28 30
MSLP
1006.59 1007.36 1007.49 1007.60 1007.20 1007.27 1007.34 1007.31 1007.28 1006.76 1006.18 1006.06 1005.33 1004.13 1003.87 1003.38 1002.81 1002.67 1002.34 1002.17 1001.70 1001.29 1000.75 1001.56 1002.65 1003.53 1004.28 1005.29 1006.02 1006.53 1007.17 1007.58 1008.07 1008.66 1009.09 1009.57 1009.77 1009.88 1010.11 1010.15 1010.35 1010.76 1011.38 1012.22
1007.09 1006.99 1007.05 1007.19 1007.30 1007.51 1007.53 1007.47 1007.44 1007.00 1006.56 1006.70 1005.86 1003.53 1003.10 1002.84 1002.02 1001.85 1001.59 1001.31 1001.05 1001.05 1001.07 1001.69 1002.68 1003.52 1003.81 1004.49 1005.51 1006.17 1006.81 1007.13 1007.73 1008.25 1008.75 1009.23 1009.75 1010.05 1010.26 1010.46 1010.64 1010.58 1011.32 1012.12
1006.69 1006.50 1006.26 1006.94 1007.13 1007.45 1007.52 1007.52 1007.63 1007.69 1007.57 1007.27 1006.59 1003.78 1002.55 1001.03 1001.33 1000.87 1000.73 1000.48 1000.31 1000.76 1000.90 1001.42 1002.33 1002.91 1003.63 1004.21 1004.84 1005.51 1006.27 1006.59 1007.40 1008.01 1008.64 1009.09 1009.73 1010.17 1010.38 1010.62 1010.74 1011.15 1011.13 1011.92
1006.46 1005.94 1006.20 1006.83 1007.04 1007.33 1007.66 1007.61 1007.94 1008.43 1008.64 1008.47 1007.66 1004.79 1002.80 1001.32 1000.67 1000.35 999.93 1000.02 999.86 1000.03 1000.46 1000.92 1001.51 1002.58 1002.99 1003.50 1004.58 1005.37 1005.97 1006.41 1007.06 1007.76 1008.26 1008.57 1009.17 1009.74 1010.05 1010.38 1010.77 1011.20 1011.15 1011.66
1005.86 1005.67 1005.79 1006.26 1006.66 1007.05 1007.72 1007.94 1008.68 1009.12 1009.26 1008.94 1008.59 1008.02 1000.86 1001.32 1000.11 999.48 999.31 998.88 998.92 999.05 999.43 1000.21 1000.54 1000.82 1002.18 1003.23 1004.10 1005.16 1005.65 1006.29 1006.68 1007.41 1007.79 1008.28 1008.89 1009.46 1009.84 1010.37 1010.80 1011.30 1011.43 1011.72
1005.62 1005.62 1005.65 1006.01 1006.92 1007.27 1008.16 1008.79 1009.43 1009.75 1009.93 1008.78 1007.97 1007.90 1001.47 1001.27 999.60 998.91 998.34 997.95 997.91 998.23 998.64 999.04 999.40 1000.97 1002.33 1003.30 1004.25 1004.93 1005.40 1006.05 1006.39 1007.14 1007.57 1007.90 1008.43 1009.05 1009.78 1010.35 1010.78 1011.22 1011.57 1012.02
1005.92 1005.78 1005.76 1006.13 1007.25 1008.11 1008.67 1009.91 1010.71 1010.48 1009.92 1008.16 1006.57 1006.41 1002.40 1000.21 999.12 998.00 997.04 996.87 996.79 997.28 997.72 998.42 999.70 1000.81 1001.79 1002.55 1003.61 1004.37 1005.14 1005.70 1006.01 1006.78 1007.29 1007.65 1007.97 1008.51 1009.18 1009.91 1010.58 1011.10 1011.52 1012.01
1006.07 1006.25 1005.98 1006.15 1006.78 1008.02 1009.34 1010.12 1010.55 1010.17 1009.46 1008.14 1006.41 1004.49 1002.51 1000.77 998.93 997.74 997.19 996.65 995.96 996.46 996.82 997.49 998.26 999.30 1000.60 1001.76 1002.88 1003.64 1004.59 1005.31 1005.65 1006.27 1006.90 1007.39 1007.62 1008.13 1008.79 1009.28 1009.88 1010.56 1011.05 1011.54
1005.83 1005.78 1005.50 1005.73 1006.33 1007.31 1009.51 1010.13 1010.03 1010.30 1009.43 1008.55 1006.06 1003.62 1001.82 1000.92 1000.01 999.08 997.93 996.69 996.33 996.20 995.79 996.19 997.28 998.65 1000.02 1001.17 1001.94 1002.71 1004.03 1004.86 1005.33 1005.89 1006.60 1007.01 1007.35 1007.75 1008.21 1008.84 1009.49 1009.97 1010.55 1011.25
1005.63 1005.86 1005.83 1006.01 1006.44 1007.48 1008.20 1009.13 1010.28 1010.41 1009.32 1007.61 1005.23 1003.69 1002.60 1002.34 1001.75 1000.57 998.86 998.64 997.31 996.49 995.67 996.03 997.12 998.01 999.21 1000.45 1001.57 1002.60 1003.55 1004.32 1005.01 1005.74 1006.40 1006.74 1007.16 1007.52 1007.97 1008.48 1008.96 1009.52 1010.23 1010.80
1005.71 1006.34 1006.77 1006.37 1006.61 1007.23 1008.53 1009.11 1009.67 1010.09 1009.32 1007.55 1006.01 1004.17 1003.53 1003.55 1003.20 1002.17 1000.81 999.35 998.18 997.03 996.60 997.53 998.13 998.92 999.96 1000.94 1001.79 1002.57 1003.46 1004.24 1004.73 1005.34 1006.08 1006.66 1007.01 1007.37 1007.86 1008.37 1008.88 1009.24 1009.76 1010.29
1006.49 1007.01 1007.34 1007.01 1006.55 1006.67 1007.15 1008.16 1008.98 1009.26 1008.73 1007.99 1006.90 1005.05 1004.35 1004.09 1003.86 1003.21 1001.73 1000.73 999.52 998.92 998.26 998.81 999.21 999.62 1000.51 1001.48 1002.43 1003.30 1004.04 1004.84 1005.26 1005.78 1006.38 1006.78 1007.05 1007.30 1007.63 1007.99 1008.44 1008.89 1009.39 1009.85
1006.99 1007.77 1008.10 1007.50 1007.57 1007.51 1008.03 1008.38 1008.73 1008.82 1008.60 1007.64 1007.34 1005.43 1005.05 1004.68 1004.14 1003.89 1003.29 1002.35 1001.39 1001.09 1000.69 1000.59 1000.51 1001.07 1001.57 1002.20 1003.03 1003.62 1004.08 1004.70 1005.18 1005.54 1005.94 1006.45 1006.79 1007.15 1007.33 1007.81 1008.15 1008.53 1008.93 1009.28
1007.34 1008.37 1008.87 1009.05 1008.86 1008.74 1008.40 1008.23 1008.30 1008.33 1008.01 1007.18 1006.38 1005.20 1004.76 1004.55 1004.57 1004.69 1004.22 1003.71 1002.59 1002.69 1002.74 1002.73 1002.55 1003.08 1003.36 1003.62 1004.17 1004.39 1004.64 1004.70 1004.86 1005.25 1005.76 1006.20 1006.69 1006.99 1007.25 1007.53 1007.84 1008.18 1008.41 1008.67
1008.55 1009.32 1009.54 1009.46 1009.12 1008.66 1008.12 1007.72 1007.52 1007.54 1007.41 1007.21 1006.09 1005.45 1004.50 1004.58 1004.68 1005.02 1004.62 1004.09 1003.80 1004.11 1004.29 1004.81 1005.12 1004.78 1005.03 1005.01 1005.29 1005.71 1005.51 1005.38 1005.06 1005.11 1005.64 1005.98 1006.33 1006.47 1006.71 1007.02 1007.27 1007.48 1007.80 1007.93
1009.58 1010.06 1010.16 1009.96 1009.22 1008.47 1007.76 1006.98 1006.45 1006.31 1006.52 1006.64 1006.12 1004.95 1004.24 1004.19 1004.24 1005.12 1005.40 1004.92 1005.23 1005.79 1006.24 1007.12 1007.14 1005.87 1006.31 1006.42 1006.46 1006.89 1006.83 1006.54 1006.45 1006.42 1006.43 1006.34 1006.31 1006.34 1006.28 1006.59 1006.90 1006.91 1006.93 1007.08
1010.52 1010.83 1011.05 1010.57 1009.86 1008.77 1007.45 1006.26 1005.92 1005.43 1005.71 1005.92 1005.72 1005.16 1004.66 1004.60 1004.81 1005.35 1005.96 1006.24 1006.98 1007.65 1008.29 1008.75 1008.57 1008.25 1008.56 1007.79 1007.37 1008.22 1008.39 1008.17 1007.88 1007.85 1007.75 1007.73 1007.61 1007.28 1007.09 1006.79 1006.48 1006.36 1006.35 1006.62
1010.88 1011.34 1011.59 1011.13 1010.42 1009.07 1006.76 1005.70 1005.05 1004.75 1004.78 1005.12 1005.01 1005.09 1005.14 1005.63 1005.99 1006.25 1006.64 1007.67 1008.63 1009.38 1009.58 1009.90 1010.06 1009.97 1010.03 1008.90 1008.89 1009.43 1009.26 1009.12 1009.12 1008.88 1008.80 1008.70 1008.59 1008.31 1008.10 1007.75 1007.47 1007.21 1006.76 1006.23
1010.73 1011.42 1011.79 1011.69 1010.71 1008.85 1007.28 1005.74 1005.59 1005.39 1004.99 1004.98 1005.13 1005.18 1005.83 1006.62 1006.82 1008.54 1008.85 1009.33 1010.34 1010.59 1011.04 1011.58 1011.30 1011.44 1011.67 1010.08 1009.82 1009.84 1009.95 1009.93 1010.07 1010.01 1010.05 1009.94 1009.58 1009.18 1008.97 1008.74 1008.48 1008.06 1007.52 1006.90
1011.03 1011.50 1012.11 1011.99 1011.13 1009.16 1007.16 1005.96 1005.64 1005.18 1005.36 1005.35 1004.34 1004.75 1005.93 1006.79 1008.05 1010.17 1010.75 1011.32 1011.77 1011.99 1012.30 1012.43 1012.08 1012.70 1012.34 1011.56 1011.06 1010.88 1011.01 1011.15 1011.10 1011.13 1010.96 1010.81 1010.69 1010.28 1009.94 1009.52 1009.03 1008.70 1008.06 1007.47
1011.67 1011.96 1012.15 1011.89 1011.22 1009.24 1007.54 1006.88 1006.22 1006.73 1007.60 1006.66 1006.46 1006.55 1006.93 1008.14 1009.15 1011.05 1012.00 1012.56 1012.87 1013.29 1013.75 1013.72 1013.87 1014.01 1013.85 1013.07 1012.36 1012.23 1012.04 1011.92 1012.08 1011.99 1012.09 1011.81 1011.79 1011.27 1011.04 1010.43 1009.89 1009.39 1008.79 1008.16
1011.56 1011.92 1012.11 1011.65 1011.11 1009.61 1008.00 1007.53 1007.75 1008.34 1008.38 1008.43 1008.31 1008.82 1009.18 1010.19 1011.21 1012.19 1013.12 1013.70 1014.11 1014.23 1014.62 1014.76 1014.77 1015.05 1014.67 1014.27 1013.61 1013.38 1013.16 1013.01 1012.63 1012.75 1012.55 1012.48 1012.52 1012.06 1011.73 1011.31 1010.74 1010.03 1009.49 1009.10
1011.80 1011.70 1011.78 1011.44 1010.26 1009.76 1009.22 1009.32 1009.21 1009.07 1009.64 1010.17 1010.09 1010.63 1011.14 1011.83 1012.72 1013.67 1014.66 1014.92 1015.39 1015.92 1015.86 1015.63 1015.71 1015.86 1015.49 1015.32 1015.27 1014.76 1014.33 1013.57 1013.24 1013.42 1013.37 1013.19 1012.90 1012.84 1012.39 1011.87 1011.67 1011.23 1010.62 1010.10
1012.18 1012.20 1011.78 1010.61 1010.71 1010.72 1010.83 1010.78 1010.45 1010.75 1011.45 1012.04 1012.61 1012.48 1012.58 1013.37 1014.10 1015.12 1015.93 1016.28 1015.89 1016.74 1016.43 1016.20 1016.22 1016.30 1016.17 1015.93 1015.53 1014.95 1014.60 1014.08 1014.13 1013.91 1013.94 1013.86 1013.94 1013.86 1013.48 1013.08 1012.77 1012.35 1011.92 1011.68
1013.46 1012.96 1012.33 1012.02 1012.06 1012.06 1012.15 1012.20 1012.23 1012.51 1013.16 1013.63 1014.60 1015.07 1014.94 1015.24 1015.97 1016.64 1017.45 1018.12 1018.25 1018.13 1017.63 1017.53 1017.25 1017.09 1017.03 1016.85 1016.36 1015.79 1015.25 1014.70 1014.64 1014.79 1014.87 1015.08 1015.01 1014.72 1014.63 1014.66 1014.66 1014.31 1013.98 1013.17
1014.77 1014.92 1014.34 1013.74 1013.53 1013.36 1014.15 1013.91 1013.90 1013.94 1014.60 1015.12 1015.94 1016.57 1016.91 1016.82 1017.41 1018.10 1018.86 1019.72 1019.46 1019.30 1019.11 1018.57 1018.47 1018.54 1018.27 1018.10 1017.67 1017.07 1016.49 1015.95 1015.79 1015.84 1015.90 1015.84 1015.84 1015.71 1015.72 1015.73 1015.76 1015.75 1015.59 1015.13
Wind_Speed
3 4 7 11 7 4 3 3 3 4 5 4 7 16 12 10 6 9 9 9 12 12 8 9 13 14 15 15 16 15 12 12 10 7 5 3 2 3 2 5 7 10 10 12
1 7 8 7 6 6 7 5 4 5 2 4 9 24 18 10 15 9 11 11 13 5 8 13 14 15 19 19 17 15 15 15 10 9 6 3 3 2 2 3 7 8 12 13
6 5 5 8 6 5 4 4 3 6 5 4 7 23 23 22 8 7 8 9 8 10 11 14 16 17 18 20 19 18 17 15 9 11 8 5 4 3 2 3 5 3 12 13
6 7 6 5 5 6 4 2 2 2 2 5 3 16 21 18 15 11 10 8 10 9 12 14 16 16 20 19 16 13 16 15 13 11 9 12 7 5 3 4 4 4 8 10
6 2 5 5 4 6 3 3 4 3 1 2 5 5 14 6 11 15 9 8 10 9 17 18 20 22 18 18 16 13 13 15 14 13 10 9 8 5 4 4 7 6 5 7
5 1 1 3 5 2 6 5 3 2 3 8 10 11 24 9 18 16 15 11 10 9 15 18 18 14 14 15 15 12 14 14 14 14 12 13 12 10 7 7 7 6 6 5
2 2 2 4 6 5 6 6 3 3 5 7 4 13 20 22 20 15 16 10 8 9 13 15 16 16 18 21 20 15 16 17 15 13 12 13 13 13 12 10 9 9 7 6
6 2 8 5 6 6 3 7 6 4 3 3 5 9 8 7 11 6 8 10 10 9 12 18 22 21 20 21 21 19 16 17 15 15 15 13 12 9 8 9 7 6 7 8
4 2 2 4 5 10 4 4 1 1 7 6 6 7 6 14 18 19 15 12 13 13 9 19 20 18 19 19 21 20 19 18 17 18 15 15 12 11 9 8 8 8 7 7
1 2 1 3 5 4 7 6 2 3 4 5 6 5 3 12 18 18 18 15 14 13 5 12 16 18 17 16 15 15 16 17 18 16 13 13 12 12 10 9 10 9 8 9
2 3 2 3 4 8 4 3 2 2 3 4 4 3 8 13 16 18 17 15 16 15 5 4 7 7 8 9 10 10 12 13 14 14 12 11 11 12 10 9 10 10 9 10
3 4 1 6 3 4 5 4 5 3 2 3 5 4 8 7 15 17 20 17 17 16 13 11 10 11 10 9 9 7 6 6 6 7 8 8 9 10 12 11 11 10 10 10
1 2 2 4 2 6 5 2 2 7 2 7 4 4 7 7 15 18 17 17 14 17 17 16 17 15 10 9 8 8 7 7 7 8 8 8 9 9 11 11 10 10 11 11
5 3 2 2 5 3 3 5 4 5 4 2 7 5 5 5 3 14 14 16 12 14 15 15 17 15 14 14 11 9 5 3 7 10 9 9 9 8 9 10 11 11 13 13
5 1 1 4 7 6 9 11 10 8 9 6 7 11 5 3 7 4 13 13 12 14 16 15 12 13 13 13 13 11 11 12 5 6 8 9 9 9 11 12 13 14 13 13
4 2 4 3 7 8 9 11 12 8 9 10 11 13 7 4 5 7 6 8 14 14 16 14 12 17 15 14 13 13 12 13 12 12 12 5 2 7 10 11 11 11 13 14
2 2 3 3 7 10 5 4 7 4 5 4 4 5 1 0 4 8 8 11 12 12 12 14 14 15 10 12 13 12 11 11 12 12 12 12 11 9 9 8 8 13 14 13
3 4 3 3 4 3 7 12 11 5 7 5 13 7 8 9 14 13 8 13 12 10 12 12 11 13 12 11 11 9 10 12 11 12 12 11 11 11 11 10 10 9 9 10
6 4 1 3 4 6 10 4 5 9 11 4 9 5 12 13 16 14 14 16 12 12 10 9 10 11 9 11 9 10 11 11 11 12 11 11 12 11 11 11 11 9 10 9
5 3 3 1 3 5 6 4 11 10 7 9 7 21 19 11 6 5 11 12 12 11 10 9 12 10 11 11 8 10 11 12 13 12 11 11 12 10 11 11 10 10 9 10
2 1 8 5 6 7 5 9 7 2 4 9 11 5 4 6 8 13 11 11 10 10 10 8 9 9 10 10 8 10 10 12 10 9 9 10 11 9 10 10 10 9 9 8
5 4 4 3 5 9 7 6 3 2 11 10 12 12 16 14 14 12 11 10 10 10 9 9 8 8 9 10 9 10 11 9 8 8 9 9 10 10 10 12 11 11 9 8
2 3 2 5 3 8 11 12 9 10 11 10 12 11 12 12 11 10 8 10 10 8 7 8 7 7 8 9 10 10 9 8 7 7 9 9 10 12 12 13 13 10 10 8
3 3 4 4 8 10 9 13 14 15 16 15 13 12 12 12 11 9 9 9 11 9 9 9 9 11 12 11 12 11 9 8 7 8 9 8 10 12 13 10 10 11 10 9
3 8 6 3 5 4 10 11 10 14 14 14 14 13 12 11 11 9 8 8 7 7 9 9 10 11 12 11 11 12 11 8 9 8 7 6 7 8 10 13 13 11 15 14
6 5 4 3 6 4 5 9 11 13 12 13 10 12 13 12 10 9 8 5 6 8 8 10 11 10 10 11 11 12 11 10 8 9 7 7 6 6 7 6 8 26 26 30
Wind_Direction
183 162 203 207 203 182 228 236 223 251 276 310 270 295 291 285 264 281 279 282 273 245 228 172 161 161 153 164 173 175 165 160 150 152 144 134 156 153 150 170 174 157 151 154
140 231 217 195 210 216 237 250 265 272 274 330 309 293 290 265 267 236 264 280 285 233 162 152 160 167 171 170 176 174 179 170 160 164 152 131 134 135 138 143 168 169 154 149
179 220 165 178 211 218 221 213 201 243 342 297 314 290 295 277 246 265 249 253 280 209 189 164 168 176 172 179 179 176 179 172 161 157 156 129 108 96 129 141 162 152 156 152
216 232 177 176 218 165 242 215 160 120 78 252 62 286 275 286 276 244 259 244 250 209 196 190 168 174 184 183 174 170 171 172 175 161 162 159 167 168 175 159 153 141 146 145
230 215 169 168 193 162 219 62 92 113 152 320 164 275 286 322 264 263 248 245 245 210 195 191 186 187 178 173 172 168 161 174 174 179 169 167 167 167 142 157 162 164 144 144
224 3 32 179 60 83 133 63 34 116 142 259 187 191 278 259 257 256 257 250 233 208 200 199 196 161 163 167 168 165 168 177 175 183 178 177 176 168 160 171 174 173 168 154
135 244 150 117 90 40 73 72 328 306 202 255 236 187 247 302 278 239 248 243 233 202 196 190 171 169 168 172 172 168 177 187 177 180 185 185 180 176 182 178 185 175 174 174
151 207 161 172 160 161 159 158 179 250 252 301 235 227 252 302 347 316 275 265 262 230 195 187 186 178 173 173 172 172 175 185 181 187 191 191 181 183 184 178 174 178 192 194
129 276 145 145 143 144 173 180 193 278 243 244 231 279 254 3 359 354 354 8 354 301 230 192 183 176 169 170 176 172 176 182 185 188 191 192 185 187 189 180 175 179 177 187
135 80 9 85 97 50 150 147 119 204 273 240 253 247 298 1 354 343 10 354 355 340 260 183 177 171 170 172 165 166 175 181 182 185 189 192 188 188 188 193 196 183 179 180
87 82 292 121 187 173 145 150 128 231 229 304 305 259 37 6 350 340 348 2 5 360 44 116 142 130 137 144 158 163 170 174 178 181 183 188 189 191 190 195 202 203 195 190
32 103 220 249 284 206 159 150 158 186 215 244 289 275 18 358 344 340 349 358 22 19 66 75 89 97 104 105 114 118 139 156 165 170 184 192 193 194 194 197 199 199 203 205
122 24 353 2 16 28 52 11 13 310 251 231 257 277 67 37 350 334 338 343 38 43 50 60 65 66 74 100 114 142 154 165 161 175 185 194 194 197 194 204 200 196 204 211
61 96 112 185 240 202 272 243 241 261 255 323 251 283 208 98 307 309 323 331 45 48 48 53 57 58 61 59 55 57 42 248 182 186 194 200 207 208 215 217 214 214 213 213
77 92 183 277 280 271 269 266 265 222 237 262 277 284 288 184 219 230 310 341 54 51 48 48 54 58 52 53 47 35 34 29 14 180 196 204 204 203 217 217 220 220 221 220
9 349 25 297 275 271 274 283 256 257 241 252 284 275 254 249 166 152 269 15 60 52 42 31 34 59 45 43 45 35 33 33 33 46 42 39 285 213 210 216 223 219 220 223
40 94 39 272 332 317 294 232 313 199 177 217 278 276 134 268 165 181 188 78 73 57 50 35 24 47 46 41 47 38 31 34 40 36 32 28 21 17 17 355 248 228 229 224
178 142 167 241 315 267 251 325 314 250 208 242 261 264 164 111 69 60 103 92 71 71 57 42 29 31 20 42 48 51 40 38 37 36 29 23 16 13 6 5 359 345 333 261
188 138 225 210 203 299 305 341 22 345 289 281 293 211 130 115 88 58 59 73 61 61 55 52 47 29 6 28 43 44 42 42 36 32 25 16 11 10 7 2 349 339 332 326
92 99 146 146 244 250 237 318 359 333 289 343 284 152 151 157 114 99 77 65 66 56 50 40 39 27 14 13 20 50 46 40 38 28 24 19 10 9 6 358 353 339 341 328
74 130 218 228 250 276 267 318 313 166 304 32 42 54 131 77 90 116 98 81 68 63 47 53 48 30 13 6 24 40 40 34 37 37 33 32 19 13 6 356 357 350 348 355
184 177 211 196 220 259 355 345 299 98 44 56 70 70 88 95 92 99 90 82 66 51 37 29 45 31 20 18 23 39 32 9 37 45 38 39 30 28 23 18 5 3 3 17
328 207 271 229 219 69 52 71 60 67 63 40 69 70 83 78 70 60 71 77 61 44 42 43 40 31 26 24 28 36 12 12 39 49 50 46 40 36 33 33 26 21 20 20
280 24 265 226 113 85 70 63 64 64 65 52 44 63 79 81 69 54 31 23 42 28 32 33 33 35 30 23 22 25 10 26 48 48 46 45 51 53 40 33 34 32 25 29
1 299 319 35 49 44 38 47 67 76 72 70 57 49 70 80 71 68 57 34 38 29 35 40 41 37 28 21 22 12 15 16 52 49 53 52 57 53 64 56 45 42 37 42
350 348 336 2 334 69 20 14 46 59 53 58 69 62 49 63 71 77 70 58 57 54 49 52 48 44 32 25 21 17 14 32 54 61 51 46 47 48 49 51 61 55 52 49